Probability
0 0 1 1 1 1 1 2 5 9 12 14 18 21 23 24 29 34 35 34 35 40 43 43 44 46 47 46 46 45 41 36 34 32 31 30 27 24 20 18 17 18 21 21
0 1 2 2 2 2 1 2 7 12 15 17 19 22 23 25 29 33 34 35 38 41 42 41 41 41 41 41 43 44 44 40 38 38 38 37 35 30 25 21 21 21 21 21
1 2 3 3 3 3 4 6 11 17 20 21 21 21 22 25 28 31 34 36 38 39 38 37 37 36 36 37 38 42 44 43 44 44 44 43 42 37 30 27 27 27 26 26
1 2 3 3 3 4 8 11 16 22 26 27 23 21 22 24 25 28 31 33 34 34 33 32 34 36 37 38 38 39 39 40 43 46 46 45 43 39 34 32 32 31 30 30
1 2 3 3 4 6 10 15 18 24 29 29 27 25 25 26 25 26 27 29 30 31 30 31 34 38 39 39 38 37 34 34 38 43 45 44 43 41 39 36 33 31 31 32
1 2 2 3 4 6 10 13 17 21 25 25 26 26 25 26 26 26 26 28 28 29 30 31 33 36 37 36 34 32 30 30 33 36 38 40 41 42 43 40 35 30 31 33
0 1 1 2 4 6 8 10 12 15 18 17 18 21 22 23 25 25 26 26 25 26 27 30 31 34 34 31 28 25 26 27 28 29 31 33 35 39 42 41 35 31 30 31
0 0 0 1 3 4 5 5 7 8 11 12 13 17 20 22 23 24 24 23 21 20 22 24 27 30 30 26 22 20 21 23 23 25 26 27 30 34 39 38 35 32 30 29
1 1 0 0 1 2 3 3 3 5 8 11 13 16 20 23 24 23 22 22 19 17 17 20 22 25 25 21 17 16 17 19 21 23 23 23 27 32 35 35 33 32 30 29
3 3 2 1 0 0 1 1 3 4 7 10 13 14 18 22 24 23 22 21 20 18 18 18 19 20 19 17 15 15 16 18 21 22 21 21 24 28 30 31 30 29 28 26
4 4 4 3 1 0 1 2 5 6 7 9 12 13 15 19 22 22 21 19 18 18 18 18 18 17 17 17 16 17 18 19 20 20 19 19 19 21 23 24 23 22 21 20
3 2 3 3 2 2 2 4 6 7 8 10 13 14 14 16 18 19 18 17 16 15 15 16 17 17 17 18 18 19 18 18 17 17 17 17 16 15 16 15 13 12 12 12
1 1 2 3 3 3 3 5 7 8 9 13 15 15 14 14 14 15 16 15 14 12 13 14 15 15 15 16 18 18 17 16 14 13 14 15 14 14 13 10 7 6 6 7
1 1 2 3 4 4 4 7 9 8 9 12 14 13 12 13 12 12 14 14 13 12 12 12 12 12 13 13 14 16 16 14 11 9 10 13 14 15 12 9 6 6 4 3
0 1 1 2 4 5 5 6 8 7 6 8 9 9 9 10 10 11 12 12 11 10 10 9 9 10 10 10 11 13 14 12 8 7 8 11 14 14 12 9 8 8 5 3
0 0 0 1 2 3 4 4 4 5 5 6 7 7 7 8 8 10 10 10 10 9 8 7 6 6 7 7 7 9 10 8 5 5 6 9 12 12 10 8 8 7 6 4
0 0 0 0 0 1 2 2 3 5 7 8 8 8 8 8 8 9 10 10 9 8 6 4 3 3 4 4 4 5 6 4 3 3 5 7 9 10 7 5 5 5 4 4
0 0 0 0 0 0 1 1 2 5 7 9 9 9 10 9 9 9 8 8 7 4 2 1 1 1 2 3 3 4 4 3 3 3 3 4 6 6 4 2 3 3 3 3
0 0 0 0 0 0 0 0 2 4 6 8 9 10 10 9 8 6 5 4 3 1 0 0 0 0 1 2 2 3 3 3 3 3 3 2 3 4 2 2 3 4 3 3
0 0 0 0 0 0 0 1 2 5 6 7 8 8 8 7 5 4 2 1 1 0 0 0 0 0 0 0 1 2 3 3 3 3 3 2 2 3 3 3 4 5 4 4
0 0 0 0 0 0 0 1 3 5 6 6 6 5 4 4 3 2 1 0 0 0 0 0 0 0 0 0 1 2 3 3 3 3 3 2 2 2 3 3 4 5 5 4
0 0 0 0 0 0 0 0 1 3 3 3 3 2 1 1 1 1 0 0 0 0 0 0 0 0 0 0 0 1 1 2 3 3 3 2 1 2 3 3 3 3 4 4
0 0 0 0 0 0 0 0 0 1 1 1 1 0 0 0 0 0 0 0 0 0 0 0 0 0 0 0 0 0 0 1 3 3 3 2 1 2 3 3 1 1 2 3
0 0 0 0 0 0 1 1 1 0 0 0 0 0 0 0 0 0 0 0 0 0 0 0 0 0 0 0 0 0 0 1 2 2 2 1 1 3 3 3 1 0 1 2
0 0 0 0 0 0 1 2 1 0 0 0 0 0 0 0 0 0 0 0 0 0 0 0 0 0 0 0 0 0 0 0 1 1 1 1 1 2 2 2 1 0 0 1
0 1 1 0 0 0 1 1 0 0 0 0 0 0 0 0 0 0 0 0 0 0 0 0 0 0 0 0 0 0 0 0 0 0 1 1 1 1 1 1 1 0 0 0
1 2 2 1 0 0 0 0 0 0 0 0 0 0 0 0 0 0 0 0 0 0 0 0 0 0 0 0 0 0 0 0 0 0 1 0 0 0 0 0 0 0 0 0
Wind_Speed
4 4 3 4 6 5 1 5 6 6 7 9 7 6 5 5 6 7 8 7 5 4 5 5 5 4 4 5 5 6 6 6 7 6 6 5 5 5 4 4 5 4 4 4
4 4 4 5 6 4 3 1 3 6 2 3 3 4 5 5 7 8 7 6 5 5 5 5 4 4 3 3 4 4 6 6 6 5 5 5 5 5 4 4 4 4 4 5
4 5 5 5 5 1 2 2 3 5 6 5 5 5 6 5 6 7 6 5 6 5 5 4 4 4 4 4 3 4 4 4 4 4 4 5 5 4 4 4 4 4 4 4
0 3 2 7 3 3 6 7 5 3 5 7 7 5 4 4 5 4 5 4 4 4 4 3 2 2 3 3 4 4 3 3 3 3 4 4 4 5 5 4 4 4 4 4
2 1 4 7 5 2 5 5 5 4 4 4 6 6 4 2 4 5 4 4 4 4 4 3 2 2 3 2 2 3 4 4 4 5 4 4 5 6 5 5 4 4 3 4
3 3 5 5 6 1 8 2 4 4 4 3 4 4 2 1 3 4 4 4 4 3 4 2 1 1 3 2 2 3 4 4 4 4 4 5 6 5 4 4 4 3 4 4
3 3 5 5 6 5 3 4 2 2 3 3 2 3 3 1 2 3 3 4 4 4 3 1 1 2 2 1 2 3 3 3 3 3 3 3 3 3 2 2 3 3 4 4
3 3 6 5 3 2 4 3 2 2 2 3 2 1 2 3 2 3 3 3 3 3 1 0 2 3 2 2 2 2 2 2 2 2 2 2 2 3 2 3 3 4 4 4
4 5 4 2 2 3 3 2 1 1 1 2 2 2 2 2 1 2 2 1 2 3 1 0 1 2 2 2 2 1 1 2 2 2 2 2 3 4 3 3 4 4 4 5
1 2 2 2 2 2 2 1 0 1 2 2 2 1 2 2 1 1 2 1 1 2 1 1 1 1 2 2 2 1 1 2 2 2 2 2 2 3 3 3 4 4 4 4
0 3 3 3 2 2 3 3 2 1 1 2 1 0 1 1 1 1 1 1 2 2 1 2 2 2 2 1 1 1 1 2 2 2 2 2 2 3 3 4 5 5 5 5
5 5 3 5 4 1 2 2 1 1 1 1 1 1 1 1 1 1 1 1 1 1 1 2 2 2 2 2 2 2 2 2 2 2 2 2 2 2 2 3 4 5 6 6
5 4 4 4 3 2 2 2 1 1 1 2 1 1 1 1 1 1 0 1 1 1 2 2 2 2 2 2 2 3 3 3 2 2 2 2 3 3 2 2 2 3 4 6
3 0 1 3 3 2 2 1 1 2 1 2 2 1 1 1 1 1 1 2 2 2 2 2 2 3 3 2 2 3 3 3 3 3 2 3 3 3 3 2 2 2 3 3
2 1 3 3 1 1 0 1 2 1 1 1 1 1 1 1 1 2 2 2 1 1 2 2 3 4 3 3 3 4 4 3 3 2 2 2 2 2 2 2 2 2 1 1
2 2 1 1 0 0 1 2 1 0 0 0 1 1 1 2 2 2 2 1 2 3 3 3 4 5 3 3 4 4 4 5 4 2 2 2 2 2 2 3 3 3 3 2
1 2 1 1 1 0 0 1 1 1 1 1 2 2 1 1 1 2 2 2 2 3 4 4 5 4 3 3 4 4 3 3 4 2 3 3 2 3 3 3 3 3 3 4
4 4 3 3 1 0 0 0 0 1 1 2 1 1 1 2 3 4 4 3 2 3 4 4 4 4 4 4 4 3 2 2 2 3 3 2 2 3 3 3 4 4 3 3
2 2 1 1 1 1 1 1 1 1 2 1 1 2 2 3 3 3 3 3 3 4 5 4 5 5 4 4 3 2 2 2 2 2 2 3 3 3 3 3 3 4 4 3
1 1 1 1 1 0 0 0 1 1 2 1 1 2 2 3 3 3 3 3 4 4 4 4 4 4 4 3 3 2 2 2 3 3 3 3 3 3 3 3 3 3 4 4
1 1 2 2 2 1 1 1 1 1 2 2 2 3 3 3 3 3 2 3 4 3 3 4 3 3 3 2 2 1 2 2 3 3 3 3 3 3 3 3 3 3 3 3
1 1 1 1 1 2 2 1 1 1 2 2 2 2 2 3 3 3 3 3 3 3 3 2 3 3 3 2 1 1 2 2 2 1 1 2 2 2 2 2 3 2 3 3
1 1 0 1 1 1 2 1 1 1 2 2 2 2 2 3 2 1 3 3 2 3 2 2 3 4 3 1 1 1 1 1 1 1 1 2 2 2 2 2 2 2 2 3
0 0 1 1 1 1 2 3 2 2 1 2 2 2 2 2 2 2 2 3 3 3 2 2 3 3 2 1 1 0 0 0 0 1 1 1 1 2 2 2 2 2 2 3
1 1 1 1 1 1 2 2 2 2 2 1 2 2 2 1 1 2 2 1 2 2 2 3 3 3 2 1 1 1 1 1 0 0 1 1 1 1 2 2 2 2 2 2
0 0 1 1 1 1 1 0 0 1 1 1 2 2 2 2 1 1 1 1 1 2 2 2 2 2 2 2 1 2 2 2 2 1 1 1 1 2 2 2 2 1 2 2
1 1 1 1 1 1 0 0 0 1 1 0 1 2 2 2 1 1 2 2 2 2 1 2 1 1 1 2 2 1 1 1 1 1 1 1 1 1 1 2 1 1 1 2
Wind_Direction
230 254 276 295 310 323 279 196 184 200 192 209 198 167 153 126 110 98 95 99 119 140 143 143 140 144 158 167 172 174 177 188 201 206 207 203 200 202 201 201 205 201 198 202
334 343 352 328 316 321 327 305 151 134 201 225 167 127 119 120 117 112 109 110 110 117 125 131 144 153 164 169 174 176 186 198 200 197 198 199 202 200 199 206 208 195 199 203
299 319 5 318 300 319 18 0 164 184 196 155 129 136 143 133 117 116 116 121 127 128 141 149 161 166 176 182 180 176 187 197 198 195 200 208 206 201 207 212 207 206 210 206
261 26 259 251 283 80 75 22 22 99 142 147 145 146 131 130 128 126 127 127 127 133 140 147 152 160 175 167 173 173 174 194 201 196 203 208 204 206 211 211 212 214 214 210
125 187 268 296 323 6 87 9 3 85 97 122 129 83 49 67 121 134 131 135 136 136 136 133 132 150 139 142 162 169 186 201 210 204 204 206 208 211 208 205 213 210 204 207
145 174 228 263 315 18 91 359 334 74 90 102 109 110 228 222 115 106 114 118 112 105 94 91 83 111 111 136 172 203 215 218 219 212 211 216 219 219 212 201 204 199 208 212
175 206 251 281 316 33 110 213 296 59 78 67 95 176 205 128 100 114 115 121 114 105 105 135 136 111 114 152 219 232 226 225 221 220 221 215 219 219 207 206 197 197 206 209
156 189 250 301 19 108 193 206 135 87 80 80 75 79 80 92 110 113 108 112 115 111 105 132 128 128 147 221 241 245 233 229 233 228 232 227 209 220 199 187 201 208 209 209
186 211 252 305 124 166 153 123 140 117 65 88 75 74 103 91 109 120 113 109 114 118 110 38 149 142 181 240 241 229 240 246 249 248 238 220 205 211 209 201 207 214 210 213
42 293 310 16 55 41 60 77 278 111 99 86 88 78 107 111 123 124 115 131 121 111 118 261 256 222 219 239 235 211 245 265 258 240 241 236 224 217 211 211 216 219 214 215
309 283 355 2 21 17 9 3 16 24 55 102 95 30 129 124 150 151 162 163 142 148 193 256 248 248 257 241 208 249 258 257 259 252 238 238 243 238 228 228 217 213 217 212
229 239 227 259 270 306 351 317 315 38 20 52 122 188 124 147 178 175 192 183 150 166 219 260 268 265 253 233 202 212 250 259 255 257 256 238 239 274 292 248 232 224 222 217
223 244 240 254 280 303 318 302 301 162 146 130 82 62 82 140 166 154 158 170 183 219 240 252 256 262 253 236 226 226 239 251 256 248 243 233 221 221 243 302 291 259 234 217
236 240 297 279 272 291 299 314 48 52 83 120 116 96 110 129 167 189 221 227 216 219 249 261 272 270 259 236 229 238 241 244 242 240 239 237 232 225 212 210 248 288 286 245
279 214 224 251 265 350 23 58 49 33 43 41 77 101 160 202 233 248 252 244 245 256 264 271 278 274 266 251 248 244 241 240 235 233 230 231 229 221 205 198 204 226 252 272
283 313 308 298 300 16 45 63 73 13 296 230 221 222 220 214 241 266 278 274 272 271 270 266 266 269 265 258 260 257 247 242 238 224 223 222 218 207 204 199 200 202 203 201
219 276 271 273 295 285 141 140 157 208 225 223 223 216 208 192 277 285 282 275 261 262 263 259 261 264 263 262 255 248 239 231 235 233 227 222 217 209 202 200 205 207 205 195
210 218 212 214 218 123 10 286 228 262 243 225 201 188 206 220 242 260 266 274 284 285 276 263 264 273 267 266 258 247 233 224 223 228 234 235 229 215 203 204 207 205 200 189
190 190 218 210 227 189 200 258 270 273 277 249 207 229 236 235 239 255 267 271 273 279 277 273 282 285 275 275 265 229 222 228 236 243 245 236 231 221 209 206 204 201 189 185
54 39 37 34 18 54 65 299 316 309 298 280 246 251 267 270 265 270 274 269 260 255 261 270 277 278 270 272 275 229 219 221 229 237 234 218 208 208 211 210 200 194 185 184
30 55 46 27 358 348 345 313 305 279 279 279 249 242 251 271 276 272 271 284 286 279 277 277 275 272 267 272 263 232 229 232 232 227 218 213 208 208 213 212 206 199 190 186
36 87 44 359 355 339 324 313 297 295 295 284 245 250 264 280 287 292 279 260 272 292 298 290 281 271 272 273 258 241 235 241 236 216 206 206 206 205 208 206 205 197 186 185
26 52 2 302 297 301 320 324 305 293 289 297 290 282 276 272 269 270 294 288 286 296 304 294 289 283 276 268 267 250 232 234 226 209 201 197 193 186 193 198 194 183 179 186
295 264 280 292 7 24 346 314 304 293 298 308 304 300 292 301 317 308 288 301 309 306 313 309 312 325 325 350 15 21 264 266 278 196 172 174 181 172 174 177 179 181 182 189
265 304 323 351 347 300 276 292 328 337 342 344 334 330 323 293 265 295 318 321 313 317 320 323 343 1 23 38 35 26 13 14 26 106 120 146 171 163 165 169 175 178 184 193
248 288 266 250 242 247 258 285 298 303 346 2 337 332 336 333 324 329 345 344 340 347 351 340 344 7 21 26 42 52 53 41 38 58 97 114 132 145 154 165 171 175 183 184
1 3 3 346 332 320 323 288 253 276 265 217 303 318 328 334 340 349 360 353 354 356 2 1 2 14 29 27 29 33 33 29 33 50 106 131 137 141 161 171 165 161 168 166